Wind_Speed
8 9 10 11 9 8 8 7 7 8 8 8 7 7 6 6 6 5 4 4 3 3 3 4 3 2 2 2 3 4 5 6 6 6 6 5 5 4 3 2 1 1 2 4 5 7 8 10 12
7 8 10 10 9 8 7 7 7 7 7 8 8 8 7 7 6 6 5 5 5 5 5 5 5 4 3 2 1 1 2 3 3 4 4 4 3 3 2 2 1 1 2 2 3 4 5 7 8
6 7 9 9 7 7 6 7 7 6 6 7 9 9 8 8 7 7 7 7 7 7 7 7 7 7 6 5 4 3 2 1 1 1 1 1 1 1 1 1 1 1 2 2 3 3 4 5 6
5 6 8 8 7 6 5 6 6 7 8 9 10 10 10 10 9 9 9 9 9 10 10 10 9 9 9 8 8 7 6 5 4 3 3 2 1 1 1 1 1 1 1 2 3 3 3 3 4
4 5 6 7 7 7 7 7 8 9 9 10 11 11 11 11 11 11 11 11 12 12 12 11 11 12 11 11 11 10 10 9 8 7 6 6 5 4 3 2 2 1 1 2 2 3 3 2 3
6 7 7 7 8 9 10 10 9 10 11 11 12 12 13 13 12 13 13 14 15 14 14 13 13 13 14 14 14 14 14 14 13 12 11 10 9 8 7 6 5 4 3 3 2 3 2 2 2
6 8 8 9 10 11 13 13 11 13 14 14 14 14 14 15 15 15 15 15 16 16 16 14 15 15 16 17 17 17 17 18 18 17 16 14 13 12 11 10 9 8 7 5 4 3 2 2 2
8 10 10 12 13 14 16 16 16 17 18 18 18 17 18 18 18 18 18 18 18 19 18 18 17 18 18 19 19 20 20 21 22 21 20 19 17 16 15 13 12 11 10 9 8 6 4 3 3
9 11 13 15 16 17 18 19 20 21 22 22 22 22 22 22 22 22 22 22 22 22 22 22 21 21 21 21 21 22 23 23 23 23 23 22 21 20 18 17 16 15 14 13 11 10 8 6 5
11 13 15 17 18 20 20 22 23 24 25 25 25 25 26 26 26 26 27 27 27 28 27 27 27 27 26 25 25 24 24 24 24 24 24 24 24 23 22 20 19 18 17 16 15 14 12 10 9
13 14 16 18 20 21 22 23 24 26 27 27 28 28 28 28 29 30 31 32 33 34 34 34 34 34 33 32 31 30 28 27 26 25 26 26 25 24 24 23 23 22 21 20 19 17 16 14 13
15 16 18 20 21 22 23 24 25 26 28 28 29 30 31 32 32 33 34 35 36 37 38 38 39 38 38 37 37 36 35 33 32 30 27 26 26 26 25 27 26 26 24 23 22 21 20 18 17
16 17 19 20 21 22 24 25 26 27 28 30 32 33 32 32 33 33 34 35 36 37 39 39 40 40 40 40 40 40 40 39 37 36 33 31 29 28 27 27 28 28 27 26 24 24 23 22 21
18 19 20 21 22 23 24 25 26 28 29 30 30 30 29 30 30 30 31 31 33 34 36 37 38 38 39 39 40 41 41 41 41 41 39 37 35 33 32 30 28 30 29 28 27 26 26 25 24
18 19 21 22 22 23 23 24 26 28 28 29 29 30 30 30 30 30 29 29 29 30 31 32 33 34 35 36 37 38 40 40 41 42 42 42 41 39 37 35 33 32 31 30 29 28 26 25 26
19 20 22 22 22 22 24 24 26 27 27 28 29 30 30 29 28 28 27 27 28 28 29 30 30 31 31 32 33 35 36 37 38 40 41 42 43 43 42 40 39 37 34 33 31 30 29 27 27
20 21 22 22 21 22 23 24 25 25 26 28 28 28 27 27 27 27 27 26 26 26 27 27 28 29 29 30 30 32 33 34 35 37 39 40 42 42 43 43 43 42 40 37 35 33 31 29 29
20 21 21 22 22 23 23 23 23 24 25 25 25 25 26 26 26 25 25 25 25 25 25 25 25 26 27 28 29 29 31 32 34 35 36 38 40 41 42 42 44 43 42 41 39 37 35 33 31
20 20 21 21 22 21 21 21 22 22 22 22 22 23 24 24 23 22 22 22 22 21 20 20 20 21 22 23 25 26 27 29 31 33 35 36 38 39 40 41 42 43 43 42 41 40 39 37 35
18 18 20 20 20 19 19 19 19 19 19 19 21 22 22 21 21 20 20 21 20 19 18 17 17 17 17 19 20 22 23 25 27 29 31 33 35 37 38 40 41 42 42 42 42 42 41 39 38
15 17 18 18 18 17 17 15 16 15 16 17 18 18 18 19 19 19 20 20 20 19 19 18 17 16 16 16 16 17 19 20 22 24 27 29 32 34 37 39 41 42 42 42 42 43 42 40 39
14 16 16 16 16 15 14 13 13 13 14 15 16 16 17 18 18 19 20 20 20 20 20 19 18 17 16 16 15 15 15 17 19 21 23 25 28 30 33 36 39 42 43 43 42 42 43 42 41
13 15 15 15 14 12 11 11 11 12 13 14 15 16 17 18 19 19 20 20 20 20 21 20 19 18 17 16 15 14 13 14 15 17 19 21 23 26 28 32 35 39 41 43 44 43 43 43 43
12 13 13 12 11 10 10 10 11 12 13 14 16 17 18 19 20 20 20 20 20 21 21 20 20 19 18 17 16 14 13 14 14 14 15 17 19 21 24 28 31 35 38 41 42 44 43 43 44
11 12 11 11 11 10 10 10 11 12 14 15 16 18 19 19 20 20 20 21 21 21 21 20 20 20 20 19 17 15 14 14 14 14 14 15 16 18 20 22 26 30 34 37 41 42 43 43 44
9 10 10 10 10 9 9 10 11 13 15 16 17 18 19 19 20 20 21 21 21 21 21 21 20 21 21 20 18 16 15 14 14 14 14 14 14 14 16 17 20 24 28 32 37 40 42 43 44
7 9 9 8 8 8 9 10 12 13 15 16 17 18 19 19 19 20 21 22 21 22 21 21 21 21 21 20 19 18 17 16 15 15 14 13 12 12 13 14 16 19 23 27 31 36 40 42 43
7 8 8 7 7 8 9 10 11 12 14 16 17 18 18 19 19 20 21 22 22 22 22 22 22 22 23 22 21 20 19 18 17 15 14 13 12 12 12 13 14 16 18 21 25 29 33 37 40
6 7 7 7 8 8 8 10 11 12 14 15 17 17 18 18 19 20 21 22 22 22 22 22 22 22 23 23 22 21 20 19 18 17 16 14 13 12 12 12 13 14 16 18 21 25 29 33 36
5 6 7 7 8 8 9 10 11 12 14 15 16 17 18 18 19 20 21 22 22 23 23 23 24 24 24 23 23 22 21 20 19 18 17 16 15 14 13 13 12 12 13 15 17 20 24 28 32
Wind_Direction
55 51 44 39 36 44 46 46 45 41 36 29 23 23 17 5 354 340 324 302 294 299 307 308 310 323 350 30 58 72 80 85 86 87 86 85 83 80 78 79 85 290 285 277 276 278 276 270 269
45 44 40 39 38 50 51 47 43 40 37 27 16 12 8 1 353 340 323 298 283 282 283 283 282 281 286 295 311 24 74 87 91 91 89 86 81 77 72 64 50 11 326 308 298 295 289 282 279
27 30 30 30 34 34 35 29 28 29 28 19 10 2 357 352 345 335 319 298 281 274 272 270 269 269 269 269 270 271 267 252 191 134 110 93 79 67 56 51 40 23 2 346 328 318 303 294 290
1 15 19 16 15 4 353 359 7 5 4 2 357 350 346 342 335 327 314 300 286 275 266 263 262 261 262 262 262 263 263 260 256 252 249 247 255 281 295 310 335 343 340 344 342 339 322 305 297
346 354 357 360 359 341 329 329 340 347 350 349 343 339 335 332 327 320 310 299 288 281 268 261 260 260 259 258 258 257 257 257 255 254 254 254 254 256 260 266 275 289 306 327 339 348 351 337 312
327 329 338 334 328 319 316 316 330 334 334 334 332 327 325 323 320 313 306 300 293 286 280 267 262 262 261 258 257 256 255 253 252 251 251 253 253 252 253 255 259 263 268 282 307 331 342 337 317
310 316 318 312 312 307 306 306 312 320 316 317 316 314 311 309 308 306 301 298 295 290 285 280 275 269 263 260 259 258 258 255 251 249 249 250 250 250 250 252 253 255 257 261 268 283 309 314 305
310 308 308 302 301 300 301 304 306 310 307 306 303 302 300 297 295 293 290 289 286 285 282 278 277 276 271 267 265 261 260 259 255 251 249 249 249 249 249 250 251 252 253 253 256 258 264 276 279
303 302 302 300 300 300 300 301 303 306 304 302 299 296 294 291 288 284 280 277 275 273 273 272 272 274 269 269 268 265 261 259 258 255 253 251 249 249 248 249 250 252 252 252 252 252 251 252 256
296 297 298 299 299 300 300 301 302 301 301 299 296 293 290 287 284 281 277 272 268 267 265 264 265 266 266 266 265 265 264 261 259 256 256 255 253 250 247 248 249 250 251 251 251 250 248 246 246
291 294 295 297 299 300 301 302 301 300 299 298 296 294 291 288 284 281 278 274 271 268 265 263 262 261 261 262 262 260 261 261 261 259 258 256 252 251 249 248 248 249 251 251 250 250 248 245 243
291 293 295 297 300 300 301 302 300 300 301 300 298 296 294 291 289 286 282 278 275 272 269 266 264 262 260 260 260 259 258 258 259 260 260 260 255 252 253 250 249 249 250 251 249 248 248 246 243
291 293 295 298 300 301 301 302 302 302 303 302 300 299 298 295 294 291 288 284 280 276 272 269 267 265 263 261 260 259 258 257 256 257 258 258 259 257 254 253 250 249 250 249 249 248 247 246 244
291 295 297 299 302 302 301 303 304 305 306 306 305 304 304 303 302 299 296 291 287 283 280 276 272 270 268 265 262 260 259 257 256 255 255 255 255 256 257 256 254 251 250 251 249 247 245 245 244
292 296 299 302 304 303 303 305 307 310 310 309 309 310 309 307 305 302 299 296 293 289 286 283 279 276 273 269 265 262 259 257 256 255 254 253 253 254 255 254 253 253 252 251 250 249 248 247 244
293 297 301 304 306 307 309 311 312 313 312 313 314 314 313 312 310 306 303 299 296 293 290 286 283 281 278 274 269 264 261 258 255 254 253 253 253 252 253 253 253 254 254 253 253 252 249 249 245
296 300 305 308 311 314 316 315 316 316 316 317 319 320 319 319 317 313 309 306 302 298 295 290 286 283 280 278 274 269 264 259 256 254 252 251 251 251 251 251 252 254 254 254 253 252 251 249 247
299 305 310 314 319 320 319 318 319 318 319 321 324 325 325 325 323 321 318 316 311 306 301 296 292 287 283 280 277 272 267 262 257 255 252 251 250 250 250 249 250 250 250 250 250 250 250 249 248
301 307 312 318 321 321 322 322 322 323 324 325 328 331 332 332 332 333 332 330 325 320 315 310 302 295 289 285 280 275 270 266 262 258 255 252 250 249 248 248 248 248 248 248 247 248 247 247 247
302 308 314 320 323 325 325 326 327 329 329 332 333 335 337 338 340 344 345 346 344 341 336 330 322 312 303 296 289 282 275 270 265 261 258 254 251 248 246 246 245 246 246 246 246 246 245 245 245
305 314 321 326 328 329 330 334 336 338 339 339 340 344 348 352 355 355 355 354 353 353 350 345 338 331 321 311 301 292 284 277 271 266 262 257 254 250 248 246 244 244 244 244 244 244 243 242 242
316 323 328 331 332 335 339 346 348 348 348 349 352 356 359 1 1 0 -0 360 359 359 358 356 352 346 339 330 319 308 299 288 279 273 268 263 259 255 251 247 245 243 242 242 243 243 242 241 240
327 331 333 336 340 346 353 359 359 356 356 360 3 4 3 2 1 360 1 1 2 2 1 0 358 355 352 347 340 330 320 310 297 287 279 271 265 260 255 250 246 243 241 241 241 241 241 240 239
333 336 339 345 354 2 6 8 8 6 6 8 8 6 3 1 360 1 2 2 2 1 2 2 3 1 358 353 347 341 334 327 317 309 299 286 275 267 261 255 249 245 242 240 239 240 239 238 237
339 344 351 359 5 12 13 16 16 13 13 11 9 7 5 4 4 5 6 5 5 4 4 4 4 4 2 359 355 349 343 337 331 323 315 303 289 279 271 262 255 249 245 242 240 239 238 238 236
350 353 359 5 12 17 21 24 20 17 15 12 10 8 6 7 8 9 9 9 8 7 7 6 5 4 3 1 359 354 350 347 341 335 327 318 305 293 283 272 262 254 248 244 241 239 238 237 236
359 2 7 15 22 30 32 28 20 15 14 12 9 7 6 7 9 10 11 11 9 8 8 7 7 7 7 6 4 0 355 351 346 342 335 329 320 308 295 282 271 262 254 248 244 241 239 237 236
13 12 17 24 30 33 30 24 17 15 12 11 8 7 7 8 10 10 11 12 11 11 11 10 11 11 11 10 7 5 3 360 356 351 346 337 328 317 307 296 283 272 263 256 250 245 241 238 237
23 23 27 31 32 30 26 22 17 15 11 7 6 6 8 10 11 13 13 13 13 14 14 14 13 12 12 11 10 8 6 4 2 359 356 351 343 331 318 307 298 286 273 265 257 249 243 240 238
35 29 28 28 27 25 21 20 14 11 8 5 6 7 8 9 12 14 15 16 17 18 19 19 17 16 16 14 12 10 9 7 5 2 360 357 351 344 335 324 312 300 286 275 267 255 249 243 239
Height
5919 5919 5919 5919 5919 5918 5917 5916 5915 5914 5913 5913 5912 5911 5911 5911 5910 5912 5909 5906 5906 5905 5905 5905 5904 5903 5903 5902 5901 5901 5900 5900 5899 5899 5899 5899 5899 5899 5899 5899 5900 5900 5900 5900 5900 5901 5901 5902 5902
5920 5920 5921 5920 5920 5918 5918 5917 5916 5915 5914 5913 5912 5911 5911 5910 5909 5908 5907 5905 5905 5904 5904 5903 5903 5903 5902 5901 5901 5900 5900 5900 5899 5899 5899 5899 5899 5899 5899 5899 5899 5899 5899 5899 5899 5900 5900 5900 5900
5921 5921 5922 5921 5919 5919 5918 5917 5916 5915 5914 5913 5912 5911 5910 5909 5908 5907 5906 5904 5903 5903 5902 5902 5901 5901 5901 5900 5900 5900 5899 5899 5899 5899 5899 5899 5899 5899 5899 5899 5899 5899 5899 5899 5899 5899 5899 5899 5899
5922 5921 5922 5921 5919 5919 5918 5917 5916 5915 5914 5912 5911 5911 5909 5908 5907 5906 5904 5903 5902 5901 5900 5900 5899 5899 5899 5899 5898 5898 5898 5898 5898 5898 5898 5898 5898 5899 5899 5899 5899 5899 5899 5899 5898 5898 5898 5898 5898
5922 5922 5921 5920 5919 5918 5917 5916 5915 5914 5913 5912 5911 5910 5908 5907 5906 5905 5903 5902 5900 5899 5898 5897 5897 5897 5896 5896 5896 5896 5896 5896 5896 5897 5897 5897 5897 5898 5898 5898 5898 5898 5898 5898 5898 5898 5898 5898 5897
5922 5921 5921 5919 5919 5918 5916 5915 5914 5914 5912 5911 5910 5909 5907 5906 5905 5903 5901 5900 5897 5896 5895 5894 5894 5893 5893 5894 5894 5894 5894 5894 5894 5894 5895 5895 5896 5896 5896 5897 5897 5897 5897 5898 5898 5898 5898 5897 5897
5922 5921 5919 5919 5918 5917 5915 5914 5913 5912 5911 5911 5909 5908 5906 5904 5903 5901 5899 5897 5895 5893 5892 5891 5890 5890 5890 5890 5890 5890 5890 5890 5890 5891 5891 5892 5893 5893 5894 5895 5895 5896 5896 5897 5897 5897 5897 5897 5897
5921 5921 5918 5917 5916 5915 5914 5912 5911 5910 5909 5908 5907 5905 5904 5902 5900 5898 5896 5895 5893 5892 5890 5889 5887 5887 5886 5886 5886 5886 5885 5885 5886 5887 5887 5888 5890 5891 5891 5892 5893 5894 5894 5895 5895 5896 5896 5897 5897
5919 5919 5917 5916 5915 5913 5912 5910 5909 5907 5905 5904 5903 5901 5900 5898 5896 5894 5892 5891 5888 5887 5886 5885 5884 5883 5882 5882 5881 5882 5881 5881 5881 5882 5883 5884 5885 5886 5888 5889 5890 5891 5892 5893 5893 5894 5895 5895 5896
5917 5916 5915 5914 5912 5911 5909 5907 5905 5903 5901 5899 5898 5896 5894 5892 5890 5889 5887 5885 5883 5881 5880 5879 5879 5878 5877 5877 5877 5877 5876 5876 5876 5877 5878 5879 5880 5882 5883 5885 5886 5887 5888 5889 5890 5891 5892 5893 5894
5915 5914 5913 5911 5910 5908 5906 5904 5901 5899 5896 5894 5892 5890 5888 5886 5883 5882 5880 5878 5876 5874 5873 5872 5871 5871 5871 5871 5871 5871 5871 5871 5871 5871 5872 5873 5875 5876 5878 5880 5881 5883 5884 5885 5887 5888 5889 5891 5892
5913 5911 5910 5909 5907 5905 5903 5900 5897 5894 5891 5888 5885 5883 5880 5878 5876 5874 5872 5870 5868 5866 5864 5864 5863 5863 5862 5863 5863 5863 5864 5865 5865 5866 5867 5868 5869 5870 5872 5873 5875 5877 5879 5880 5882 5883 5885 5887 5889
5910 5909 5907 5905 5904 5901 5898 5895 5892 5889 5886 5882 5879 5876 5873 5870 5868 5865 5863 5860 5858 5856 5855 5854 5853 5853 5853 5854 5854 5855 5856 5857 5858 5859 5860 5861 5863 5864 5865 5867 5869 5871 5873 5875 5876 5878 5880 5883 5885
5907 5906 5904 5902 5900 5897 5894 5891 5888 5883 5880 5876 5873 5869 5866 5864 5861 5857 5855 5852 5849 5847 5845 5844 5843 5843 5843 5844 5844 5845 5846 5847 5849 5850 5852 5854 5855 5857 5859 5860 5862 5864 5866 5868 5870 5872 5874 5877 5880
5904 5903 5901 5898 5896 5893 5890 5887 5883 5879 5875 5871 5868 5864 5861 5858 5854 5851 5848 5845 5842 5839 5836 5835 5834 5833 5833 5833 5834 5835 5836 5837 5839 5841 5843 5845 5847 5849 5851 5854 5856 5857 5860 5862 5864 5866 5868 5871 5874
5901 5899 5897 5895 5892 5889 5887 5883 5878 5874 5870 5867 5863 5860 5856 5852 5848 5845 5841 5838 5835 5832 5829 5827 5826 5824 5824 5823 5824 5824 5825 5827 5829 5830 5833 5835 5837 5840 5842 5845 5847 5850 5852 5855 5857 5859 5862 5864 5867
5897 5895 5893 5891 5888 5884 5882 5878 5874 5870 5866 5863 5859 5855 5851 5847 5843 5839 5835 5832 5828 5825 5822 5820 5818 5817 5816 5815 5814 5815 5815 5817 5819 5820 5822 5825 5827 5830 5833 5836 5838 5841 5844 5847 5849 5852 5855 5857 5860
5893 5891 5889 5886 5884 5881 5877 5874 5870 5866 5863 5859 5855 5851 5847 5843 5839 5835 5830 5827 5823 5820 5816 5814 5812 5810 5808 5807 5806 5806 5806 5807 5809 5811 5813 5815 5817 5820 5823 5825 5828 5830 5834 5837 5841 5844 5847 5850 5852
5890 5888 5885 5883 5880 5877 5874 5871 5867 5863 5860 5856 5853 5849 5845 5840 5836 5831 5827 5823 5819 5815 5812 5809 5806 5804 5802 5800 5799 5798 5798 5798 5799 5801 5803 5805 5807 5810 5813 5815 5818 5820 5824 5827 5831 5835 5838 5841 5844
5887 5885 5883 5880 5877 5874 5871 5868 5864 5861 5858 5854 5851 5847 5843 5838 5834 5829 5825 5820 5816 5812 5808 5805 5802 5799 5797 5795 5793 5792 5791 5791 5791 5792 5793 5795 5797 5799 5802 5805 5808 5811 5814 5817 5821 5824 5828 5832 5835
5885 5883 5880 5878 5874 5871 5869 5866 5863 5860 5856 5853 5850 5846 5842 5837 5833 5828 5824 5819 5815 5811 5807 5803 5800 5796 5793 5791 5789 5787 5786 5785 5785 5785 5785 5786 5788 5790 5792 5795 5797 5800 5804 5807 5811 5815 5818 5822 5826
5882 5880 5877 5875 5872 5869 5867 5865 5862 5859 5856 5853 5849 5845 5841 5837 5832 5828 5824 5819 5815 5810 5806 5802 5798 5794 5791 5788 5785 5783 5781 5780 5779 5778 5778 5778 5779 5780 5782 5784 5787 5790 5794 5797 5800 5804 5808 5812 5816
5880 5878 5875 5873 5870 5868 5865 5864 5862 5859 5856 5852 5849 5845 5841 5837 5832 5828 5824 5819 5815 5810 5806 5802 5797 5794 5790 5786 5783 5780 5778 5776 5774 5773 5772 5771 5771 5772 5773 5774 5776 5779 5783 5786 5790 5794 5798 5802 5806
5878 5877 5874 5871 5869 5867 5865 5863 5862 5859 5856 5852 5849 5845 5841 5837 5832 5828 5824 5819 5815 5810 5806 5802 5798 5793 5789 5785 5782 5779 5776 5773 5771 5769 5767 5766 5765 5765 5765 5766 5767 5769 5772 5776 5780 5783 5787 5792 5796
5877 5876 5873 5871 5868 5867 5865 5863 5862 5859 5855 5852 5849 5845 5841 5837 5833 5828 5824 5819 5815 5811 5806 5802 5798 5794 5789 5785 5781 5778 5774 5771 5769 5766 5764 5762 5760 5759 5758 5758 5759 5760 5763 5766 5769 5773 5777 5781 5786
5876 5875 5874 5871 5869 5867 5865 5863 5862 5859 5856 5853 5849 5846 5842 5838 5833 5829 5824 5820 5816 5811 5807 5803 5798 5794 5789 5785 5781 5777 5774 5770 5767 5764 5761 5758 5756 5754 5753 5752 5752 5753 5754 5757 5760 5763 5767 5771 5775
5876 5874 5873 5871 5869 5867 5866 5864 5862 5859 5856 5853 5850 5847 5843 5839 5835 5830 5825 5821 5817 5812 5808 5803 5799 5794 5790 5785 5781 5777 5773 5769 5766 5762 5759 5756 5754 5751 5749 5748 5747 5747 5748 5749 5751 5754 5757 5761 5765
5876 5875 5873 5872 5870 5868 5867 5865 5863 5860 5857 5854 5851 5848 5844 5840 5836 5831 5827 5822 5818 5813 5809 5804 5800 5795 5790 5786 5781 5777 5773 5769 5765 5761 5758 5754 5752 5749 5747 5745 5743 5743 5742 5742 5743 5745 5747 5751 5754
5877 5876 5874 5872 5870 5869 5867 5868 5864 5861 5858 5855 5852 5849 5845 5841 5837 5832 5828 5823 5819 5815 5810 5805 5801 5796 5791 5787 5782 5778 5773 5769 5765 5761 5757 5753 5750 5747 5745 5742 5740 5738 5738 5737 5737 5738 5739 5742 5745
5877 5876 5875 5873 5872 5869 5868 5870 5864 5862 5859 5856 5853 5849 5846 5842 5838 5833 5829 5825 5821 5816 5812 5807 5802 5798 5793 5788 5783 5779 5774 5769 5765 5761 5757 5753 5749 5746 5743 5740 5737 5735 5733 5732 5731 5731 5732 5734 5737